Regional Weather Roundup
Issued by NWS

Home | Current Version | Previous Version | Graphics & Text | Print | Product List | Glossary On
Versions: 1 2 3 4 5 6 7 8 9 10 11 12 13 14 15 16 17 18 19 20 21 22 23 24 25 26 27 28 29 30 31 32 33 34 35 36 37 38 39 40 41 42 43 44 45 46 47 48 49 50
000
ASUS43 KMPX 200110
RWRMN
WEATHER ROUNDUP FOR MINNESOTA
NATIONAL WEATHER SERVICE TWIN CITIES/CHANHASSEN MN
700 PM CST MON FEB 19 2018


NOTE: "FAIR" INDICATES FEW OR NO CLOUDS BELOW 12,000 FEET WITH NO
SIGNIFICANT WEATHER AND/OR OBSTRUCTIONS TO VISIBILITY. N/A MEANS
CURRENT SKY AND/OR WEATHER CONDITIONS ARE NOT AVAILABLE.

MNZ060>063-068>070-200200-
   Twin Cities Metro

CITY           SKY/WX    TMP DP  RH WIND       PRES   REMARKS
TWIN CITIES    FRZ DRZL  21  20  96 N15       29.91R FOG     WCI   8
ST PAUL        CLOUDY    22  20  92 NE12      29.93R FOG     WCI  10
CRYSTAL        LGT SNOW  19  15  84 NE15      29.92R FOG     WCI   5
BLAINE         CLOUDY    19  18  93 N14       29.93R FOG     WCI   6
LAKEVILLE      CLOUDY    21  21 100 NE15G21   29.87F FOG     WCI   8
EDEN PRAIRIE   FRZ RAIN  20  17  88 N14G23    29.90R FOG     WCI   7
SOUTH ST PAUL  CLOUDY    23  20  91 N12       29.91R WCI  11
LAKE ELMO      CLOUDY    23  21  93 NE7       29.91R FOG     WCI  15
$$
MNZ001>005-007-008-013>017-022>024-027-028-200200-
   Northwest Minnesota

CITY           SKY/WX    TMP DP  RH WIND       PRES   REMARKS
BEMIDJI        FLURRIES   9   3  75 NE10      30.08S WCI  -5
HALLOCK        FAIR       7  -8  51 N9        30.26R WCI  -7
ROSEAU         MOCLDY     9  -2  61 NE7       30.22R WCI  -3
WARROAD        FAIR       7  -6  56 N9        30.21S WCI  -7
THIEF RVR FALL CLOUDY     6  -2  69 N17       30.19R WCI -13
CROOKSTON      FAIR       7   0  72 N16       30.20S WCI -11
FOSSTON        CLOUDY     7  -2  66 N10       30.13R WCI  -8
DETROIT LAKES  LGT SNOW  12   9  85 N10       30.05F WCI  -1
MOORHEAD       CLOUDY     7   0  72 N22       30.13R WCI -14
PARK RAPIDS    LGT SNOW  11   5  77 NE14      30.02F WCI  -5
MAHNOMEN       CLOUDY     7   2  77 N14       30.09F WCI  -9
$$
MNZ006-009>011-018-025>026-200200-
   North Central Minnesota

CITY           SKY/WX    TMP DP  RH WIND       PRES   REMARKS
BAUDETTE       CLOUDY     8  -3  61 N8        30.17R WCI  -4
FLAG ISLAND    FAIR       7  -9  47 NE6       30.21S WCI  -3
INTL FALLS     CLOUDY     9  -1  64 NE7       30.16S WCI  -2
WASKISH        MOCLDY    10   0  61 NE7       30.14S WCI   0
BIG FORK       FLURRIES  10   1  67 N6        30.10F WCI   1
LONGVILLE      LGT SNOW  10   5  79 N7        30.06S WCI   0
GRAND RAPIDS   LGT SNOW  10   4  76 N9        30.08F WCI  -3
CRANE LAKE     CLOUDY     9  -2  61 CALM      30.19R
ORR            CLOUDY     9  -2  61 CALM      30.10F
COOK           LGT SNOW  10   1  67 NE6       30.11F WCI   1
WALKER         FLURRIES  10   3  72 N8        30.07R WCI  -2
$$
MNZ012-019>021-037-200200-
   Northeast Minnesota

CITY           SKY/WX    TMP DP  RH WIND       PRES   REMARKS
DULUTH         LGT SNOW  14   9  80 NE14      30.02R VSB 3/4 WCI  -1
ELY            LGT SNOW   7   1  78 NE7       30.11R WCI  -5
HIBBING        LGT SNOW   8   3  80 N9        30.08R WCI  -5
EVELETH        LGT SNOW N/A N/A N/A NE12      30.08F
DULUTH HARBOR  LGT SNOW  21  18  86 NE26G36   30.07R VSB 1   WCI   4
TWO HARBORS    LGT SNOW  18  10  73 N8        30.05R WCI   7
GRAND MARAIS     N/A     13   3  64 NE9G18    30.13F WCI   1
G MARAIS ARPRT LGT SNOW   5  -2  72 N15       30.04S WCI -13
$$
MNZ029>031-032-039>041-046>048-054>057-064-200200-
   West Central Minnesota

CITY           SKY/WX    TMP DP  RH WIND       PRES   REMARKS
FERGUS FALLS   LGT SNOW  10   7  85 N9        30.04S WCI  -2
WHEATON        CLOUDY    10   5  79 N17G24    30.07R WCI  -7
MORRIS         CLOUDY    12   9  85 N16       29.99S WCI  -4
ALEXANDRIA     CLOUDY    12   6  77 NE18G26   29.97S WCI  -6
ELBOW LAKE     CLOUDY    12   7  81 NE14G22   30.01R WCI  -3
WADENA         MIX PCPN  10   7  85 NE14      30.00F WCI  -5
GLENWOOD       CLOUDY    12   9  85 NE18      29.95S WCI  -5
APPLETON       FLURRIES  16   9  73 N15       29.99S WCI   1
BENSON         FLURRIES  14   9  79 NE13      30.00R WCI   0
ORTONVILLE     LGT SNOW  10   7  85 N17G23    30.00R WCI  -7
MADISON        LGT SNOW  16  12  86 N15       30.00R WCI   1
WILLMAR        CLOUDY    16  10  79 NE18G24   29.97R WCI  -1
$$
MNZ033>034-036-042>043-049>051-058-059-200200-
   Central Minnesota

CITY           SKY/WX    TMP DP  RH WIND       PRES   REMARKS
ST CLOUD       CLOUDY    15  11  83 N12       29.96S WCI   2
SAUK CENTRE    FLURRIES  13   8  83 N17       29.97S WCI  -4
PAYNESVILLE    FLURRIES  14  12  91 NE15G23   29.95S WCI  -1
AITKIN         CLOUDY    10   3  72 N14G22    30.02S WCI  -5
PINE RIVER     FLURRIES  10   5  79 N7        30.06F WCI   0
BRAINERD       LGT SNOW  13   4  67 NE16      30.03R WCI  -3
STAPLES        CLOUDY    10   3  72 NE12G17   30.01F WCI  -4
LONG PRAIRIE   CLOUDY    12   7  79 N16G23    29.98S WCI  -4
LITTLE FALLS   LGT SNOW  14   5  67 N7        30.00F WCI   4
LITCHFIELD     CLOUDY    18  16  93 N15G21    29.94R WCI   3
BUFFALO        LGT SNOW  17  14  86 N10       29.95R WCI   5
MAPLE LAKE     CLOUDY    18  15  88 NE14G22   29.95R WCI   5
HUTCHINSON     CLOUDY    18  15  86 N12G23    29.92R WCI   6
$$
MNZ037-044-045-052-053-200200-
   East Central Minnesota

CITY           SKY/WX    TMP DP  RH WIND       PRES   REMARKS
PRINCETON      FLURRIES  18  16  93 N10       29.96R WCI   6
MORA           FLURRIES  18  12  79 NE7G16    29.99S WCI   8
CAMBRIDGE      LGT SNOW  19  10  68 N9G17     29.97R WCI   9
RUSH CITY      LGT SNOW  17  14  86 NE13      29.96S WCI   4
MOOSE LAKE     LGT SNOW  16  12  86 NE10      30.01R WCI   3
HINCKLEY       FLURRIES  19  14  79 NE12G21   29.97F WCI   7
CLOQUET        LGT SNOW  14   9  79 N8        30.03R WCI   3
MCGREGOR       CLOUDY    14   9  79 N9        30.04S WCI   2
$$
MNZ071>073-080-081-089-090-097-098-200200-
   Southwest Minnesota

CITY           SKY/WX    TMP DP  RH WIND       PRES   REMARKS
MONTEVIDEO     LGT SNOW  14  12  92 NE14      29.98R WCI  -1
GRANITE FALLS  FLURRIES  17  14  87 N12       29.98R WCI   5
CANBY          LGT SNOW  14  12  89 N17       29.98S WCI  -2
MARSHALL       FLURRIES  15  12  88 N14       29.94R WCI   0
REDWOOD FALLS  CLOUDY    16  14  92 N9        29.93R WCI   4
OLIVIA         FLURRIES  18  14  86 N14       29.94R WCI   4
PIPESTONE      LGT SNOW  12  10  92 NE15G28   29.87R WCI  -4
WINDOM         HAZE      16   3  57 N18       29.85F VSB 1   WCI  -1
WORTHINGTON    FLURRIES  15  12  88 N17G24    29.86S WCI  -1
JACKSON        CLOUDY    18  16  93 N16       29.84F FOG     WCI   3
TRACY          LGT SNOW  16  15  95 N15G21    29.91S WCI   1
SLAYTON        LGT SNOW  14  12  93 N17       29.87F WCI  -3
$$
MNZ065>067-074>077-082>085-091>093-200200-
   South Central Minnesota

CITY           SKY/WX    TMP DP  RH WIND       PRES   REMARKS
MANKATO        MIX PCPN  21  19  93 MISG      29.86S FOG
NEW ULM        CLOUDY    18  16  93 N14       29.88F WCI   4
ST JAMES       CLOUDY    18  18 100 N12       29.88S FOG     WCI   5
FAIRMONT       CLOUDY    20  19  96 N20       29.83F FOG     WCI   4
GLENCOE        CLOUDY    20  17  88 N13G18    29.90R WCI   7
FARIBAULT      MIX PCPN  23  21  93 N9G16     29.85S WCI  13
OWATONNA       CLOUDY    25  21  86 N7        29.83R FOG     WCI  17
WASECA         CLOUDY    23  21  93 N10       29.84S FOG     WCI  12
ALBERT LEA     CLOUDY    25  21  86 N10       29.79R WCI  15
$$
MNZ078>079-086>088-094>096-200200-
   Southeast Minnesota

CITY           SKY/WX    TMP DP  RH WIND       PRES   REMARKS
ROCHESTER      MIX PCPN  25  25 100 N15       29.78R FOG     WCI  13
RED WING       MIX PCPN  25  19  80 NE6G16    29.86S WCI  18
STANTON        CLOUDY    25  23  91 NE13      29.85S FOG     WCI  13
DODGE CENTER   CLOUDY    23  21  93 N12       29.79S FOG     WCI  12
WINONA         CLOUDY    30  30 100 N5        29.79R FOG     WCI  25
AUSTIN         CLOUDY    25  23  93 N9        29.78R FOG     WCI  15
PRESTON        FOG       30  29  96 N9        29.76R VSB 1   WCI  21
$$
ABBREVIATIONS USED IN REMARKS
   TC - TEMPERATURES IN CELSIUS
  WCI - WIND CHILL INDEX
   HX - HEAT INDEX
  VSB - VISIBILITY
$$




USA.gov is the U.S. government's official web portal to all federal, state and local government web resources and services.